Starlink 31956

operational
NORAD ID: 59930 Int'l Des: 2024-106 Owner: SPXS Country: US Constellation: starlink
LEOCIRCULAR

Starlink 31956について

説明を読み込み中...

リアルタイム位置

3D地球を読み込み中...

次回通過

高度履歴

Altitude vs Time

uPlot chart will show altitude changes over time

軌道要素

1 59930U 24106J 25257.27988257 -.00000028 00000-0 85053-5 0 9995
2 59930 43.0007 248.7537 0000162 253.7519 106.3315 15.27576209 73541
Epoch: Sep 14, 2025 • Age: 29 hours

現在のステータス

高度 485.1 km
速度 7.63 km/s
衛星直下点 37.57°N, 133.9°E
打ち上げ日 Jun 1, 2024
運用期間 1.2 years
タイプ internet

技術仕様

分類 Payload
質量 730.00 kg
乾燥質量 700.00 kg
総質量 730.00 kg
長さ 0.30 m
直径 4.10 m
スパン 29.00 m
形状 Box + pan
製造者 SPXS
バスタイプ Starlink V2M
フェーズステータス In Orbit
所有者/国 SPXS/US

大規模コンステレーション

Loading constellations...